Location: Oundoundou
(13.6667°N, 13.5500°W)
Time: 19:13:37
(UTC+00:00)

Daily predictions for brighter satellites

Satellite Brightness Start Highest point End
(mag) Time Altitude Azimuth Time Altitude Azimuth Time Altitude Azimuth
Cosmos 1953 2.4 19:43:46 10° N 19:47:46 88° W 19:51:44 10° S
OAO 3 Rocket 4.1 19:47:33 10° NW 19:51:48 35° NNE 19:56:05 10° E
Cosmos 1954 Rocket 4.4 19:47:00 10° SSW 19:52:11 69° WNW 19:57:21 10° N
Orbus 7S? 3.3 19:51:38 10° NNW 19:55:24 46° NE 19:57:58 10° SE
Cosmos 2227 Rocket 4.3 19:53:01 10° SW 19:58:00 32° WNW 20:02:59 10° N
Iridium 2 3.6 19:54:28 10° N 19:58:16 75° E 20:02:05 10° S
Cosmos 2237 Rocket 3.5 19:54:23 10° NNE 19:58:36 22° ENE 20:02:34 11° ESE
ATLAS 2AS CENTAUR R/B 3.0 19:51:27 10° NNW 19:58:58 80° WSW 20:05:45 10° SSE
Cosmos 2333 4.2 19:54:26 10° NNW 20:00:03 85° ENE 20:05:38 10° SSE
Cosmos 1850 Rocket 4.1 19:55:33 10° S 20:00:34 54° ESE 20:05:35 10° NNE
Helios 1B rocket 4.0 19:59:44 10° ENE 20:02:16 16° E 20:04:30 11° SE
Cosmos 1867 3.8 19:57:00 10° SSW 20:02:23 78° WNW 20:07:49 10° NNE
ASTEX 1 3.3 20:00:00 10° SSE 20:04:51 72° E 20:09:43 10° N
Abrixas 4.5 20:06:49 10° WSW 20:09:12 28° NW 20:11:35 10° NNE
CZ-3B R/B 3.8 20:08:59 10° SW 20:10:53 34° NW 20:12:55 10° NNE
ALOS 2.5 20:06:33 10° S 20:11:11 74° WSW 20:15:50 10° NNW
Spelda 3.6 20:11:19 10° SW 20:13:26 20° S 20:15:08 15° SE
GPS 2-18 Rocket1 4.4 20:10:24 10° SSW 20:13:39 24° SSE 20:15:22 18° ESE
FENGYUN 3A 3.9 20:12:54 10° S 20:18:16 72° WSW 20:23:40 10° NNW
Cosmos 1674 4.3 20:18:41 16° E 20:18:41 16° E 20:21:04 10° NE
FREGAT/IRIS 4.1 20:17:22 10° S 20:20:13 36° W 20:23:03 10° NNW
HJ-1C 3.3 20:17:16 10° SSE 20:20:37 90° E 20:23:58 10° N
Cosmos 1821 Rocket 4.0 20:14:15 10° N 20:20:37 82° E 20:26:53 10° S
Meteor 1-24 Rocket 3.9 20:14:48 10° S 20:20:48 85° W 20:26:40 10° N
Cosmos 1184 Rocket 2.7 20:18:16 10° S 20:21:36 81° E 20:24:56 10° N
SJ-6B 3.1 20:18:09 10° S 20:22:01 68° W 20:25:48 10° NNW
GEOS 3 Rocket 4.3 20:19:32 17° ESE 20:22:52 38° ENE 20:27:33 10° N
Milstar 3 Cent rocket 4.3 20:17:50 10° NW 20:23:14 31° NNE 20:32:30 10° E
Meteor 1-16 Rocket 4.4 20:17:40 10° N 20:23:29 58° E 20:29:14 10° SSE
SL-16 R/B 4.0 20:22:19 10° NE 20:24:54 13° ENE 20:26:02 13° E
Cosmos 1733 4.3 20:21:13 10° NNW 20:24:55 45° W 20:28:36 10° SSW
Resurs 01 Rocket 1.9 20:23:34 17° SE 20:26:40 47° ENE 20:30:53 10° N
Cosmos 1340 Rocket 2.7 20:23:00 10° S 20:26:59 78° E 20:30:59 10° N
Cosmos 1741 Rocket 4.2 20:21:47 10° SSW 20:27:06 77° WNW 20:32:24 10° N
COSMOS 2428 3.9 20:22:03 10° NW 20:27:23 42° WSW 20:32:43 10° S
Cosmos 1934 Rocket 3.9 20:21:29 10° N 20:27:32 69° E 20:33:31 10° SSE
Resurs 1-3 4.0 20:25:39 20° SE 20:28:18 43° ENE 20:32:27 10° N
SEDSat Delta rocket 4.5 20:24:21 10° NW 20:28:26 28° NNE 20:31:07 16° ENE
Spot 2 Rocket 3.8 20:25:58 18° SE 20:29:24 45° ENE 20:34:12 10° N
CZ-2D R/B 3.2 20:31:52 24° SSE 20:34:01 60° ENE 20:37:47 10° N
Cosmos 2219 Rocket 2.4 20:29:02 10° NNW 20:34:39 72° WSW 20:39:58 11° S
USA 215 4.1 20:29:29 10° SSE 20:35:39 45° SW 20:41:51 10° NW
Cosmos 1076 Rocket 3.9 20:43:50 36° SE 20:44:48 42° E 20:48:55 10° NNE
Cosmos 1605 Rocket 4.0 20:39:11 10° N 20:45:27 65° E 20:49:57 20° SSE
SL-8 R/B 4.3 20:41:17 10° NNW 20:45:46 41° NE 20:47:10 32° E
Sylda 4400 4.4 20:43:54 10° WSW 20:45:47 19° SSW 20:45:47 19° SSW
Cosmos 2227 4.2 20:41:55 10° SSW 20:47:40 88° ESE 20:53:24 10° NNE
Cosmos 1842 Rocket 3.4 20:45:56 10° N 20:50:16 74° E 20:51:53 37° SSE
Cosmos 1727 Rocket 4.4 20:45:19 10° SSW 20:51:32 66° W 20:57:48 10° N
Cosmos 2333 Rocket 2.6 20:46:35 10° NNW 20:52:07 61° WSW 20:56:18 18° S
Envisat 3.2 20:52:52 39° ESE 20:54:09 48° ENE 20:59:01 10° N
USA 186 3.4 20:58:28 21° NNW 20:58:28 21° NNW 20:59:25 10° NNW
Cosmos 1241 Rocket 4.4 20:51:14 10° NNW 20:57:29 82° WSW 21:00:47 29° SSE
Cosmos 2263 Rocket 3.6 21:06:26 22° ENE 21:06:26 22° ENE 21:08:41 10° NE
SWIFT 3.7 21:00:20 10° W 21:03:54 27° SSW 21:03:54 27° SSW
Cosmos 2098 Rocket 4.5 20:59:22 10° N 21:06:44 69° W 21:12:05 16° S
Meteor 2-1 Rocket 4.1 21:05:28 10° N 21:11:10 83° E 21:12:50 47° SSE
Aureole 2 Rocket 4.4 21:09:56 10° NW 21:12:56 24° W 21:13:57 21° SW
Cosmos 2221 3.3 21:11:39 10° N 21:14:45 40° NE 21:14:45 40° NE
USA 234 3.4 21:14:21 10° NNE 21:20:51 73° NW 21:27:22 10° SW
GPS 2-12 Rocket1 3.6 21:20:13 10° W 21:24:57 56° NNW 21:25:22 54° N
DELTA 2 R/B (1) 4.4 21:25:24 10° WNW 21:30:33 37° SW 21:30:52 37° SW
OAO 3 Rocket 4.4 21:31:00 10° WNW 21:34:18 32° WSW 21:34:18 32° WSW
Cosmos 1766 Rocket 4.5 21:36:36 45° NW 21:36:36 45° NW 21:39:51 10° N
CZ-3B Rocket 3.8 21:31:55 10° WNW 21:37:37 86° NNE 22:29:49 10° ESE
CZ-3B Rocket 3.8 21:31:55 10° WNW 21:37:38 86° NNE 22:29:48 10° ESE
ERS-1 Rocket 4.4 21:41:50 29° NNE 21:41:50 29° NNE 21:44:28 10° N
Helios 1A 4.3 21:41:15 37° NW 21:41:15 37° NW 21:43:55 10° NNW
Palapa 6 Rocket 4.4 21:35:56 10° WNW 21:40:52 37° N 21:40:52 37° N
Cosmos 2237 Rocket 3.8 21:37:44 10° NW 21:42:26 28° WSW 21:44:26 22° SW
NOSS 3-4 (A) 4.2 21:46:12 10° NW 21:53:32 62° WSW 21:54:46 56° SSW
NOSS 3-4 (C) 4.1 21:46:17 10° NNW 21:53:39 63° WSW 21:54:49 57° SSW
MOS 1-B Rocket 4.3 21:55:28 84° ESE 21:55:38 85° ENE 22:03:42 10° NNW
Cosmos 1459 Rocket 4.4 22:00:41 10° NNW 22:05:59 58° NW 22:05:59 58° NW
SL-16 R/B 3.2 22:03:37 10° NNW 22:07:56 41° WNW 22:07:56 41° WNW
H-2A R/B 4.4 22:15:30 15° NNE 22:15:30 15° NNE 22:16:28 10° N
H-2A ROCKET BODY 4.4 22:30:14 10° NW 22:33:57 24° NNE 22:44:09 10° ENE
Milstar 3 Cent rocket 4.1 22:54:00 10° WNW 23:02:53 83° NNW 23:02:53 83° NNW
